TimeCST,TemperatureF,Dew PointF,Humidity,Sea Level PressureIn,VisibilityMPH,Wind Direction,Wind SpeedMPH,Gust SpeedMPH,PrecipitationIn,Events,Conditions,WindDirDegrees,DateUTC
12:00 AM,68,55,55,29.83,12,East,9.2,,,,Scattered Clouds,100,2013-03-17 06:00:00
12:00 AM,68.0,55.4,64,30.03,6.2,East,9.2,-,N/A,,Partly Cloudy,100,2013-03-17 06:00:00
1:00 AM,68.0,55.4,64,30.01,6.2,East,9.2,-,N/A,,Partly Cloudy,100,2013-03-17 07:00:00
2:00 AM,68.0,57.2,68,30.00,6.2,ESE,11.5,-,N/A,,Partly Cloudy,120,2013-03-17 08:00:00
3:00 AM,66,57,66,29.84,12,SE,6.9,,,,Scattered Clouds,130,2013-03-17 09:00:00
3:00 AM,66.2,57.2,73,30.00,6.2,SE,6.9,-,N/A,,Partly Cloudy,130,2013-03-17 09:00:00
4:00 AM,68.0,57.2,68,30.00,6.2,East,6.9,-,N/A,,Partly Cloudy,100,2013-03-17 10:00:00
5:00 AM,68.0,57.2,68,30.01,6.2,ESE,11.5,-,N/A,,Partly Cloudy,120,2013-03-17 11:00:00
6:00 AM,68,57,60,29.86,12,ESE,16.1,,,,Clear,120,2013-03-17 12:00:00
6:00 AM,68.0,57.2,68,30.02,-9999.0,ESE,16.1,-,N/A,,Clear,120,2013-03-17 12:00:00
7:00 AM,69.8,57.2,64,30.05,-9999.0,East,6.9,-,N/A,,Clear,100,2013-03-17 13:00:00
8:00 AM,75.2,59.0,57,30.06,-9999.0,East,11.5,-,N/A,,Clear,100,2013-03-17 14:00:00
9:00 AM,79,57,37,,12,ESE,11.5,,,,,110,2013-03-17 15:00:00
9:00 AM,78.8,57.2,47,30.06,-9999.0,ESE,11.5,-,N/A,,Clear,110,2013-03-17 15:00:00
10:00 AM,82.4,57.2,42,30.06,-9999.0,ESE,10.4,-,N/A,,Clear,110,2013-03-17 16:00:00
11:00 AM,86.0,55.4,35,30.04,6.2,ESE,5.8,-,N/A,,Partly Cloudy,110,2013-03-17 17:00:00
12:00 PM,88,57,25,29.81,12,WSW,6.9,,,,Partly Cloudy,250,2013-03-17 18:00:00
12:00 PM,87.8,57.2,35,30.01,6.2,WSW,6.9,-,N/A,,Scattered Clouds,250,2013-03-17 18:00:00
1:00 PM,87.8,60.8,40,29.98,6.2,West,11.5,-,N/A,,Scattered Clouds,260,2013-03-17 19:00:00
2:00 PM,87.8,64.4,46,29.96,6.2,WSW,10.4,-,N/A,,Scattered Clouds,240,2013-03-17 20:00:00
3:00 PM,82,66,50,29.79,12,SW,12.7,,,,Mostly Cloudy,230,2013-03-17 21:00:00
3:00 PM,82.4,66.2,58,29.96,6.2,SW,12.7,-,N/A,,Scattered Clouds,230,2013-03-17 21:00:00
4:00 PM,82.4,64.4,54,29.97,6.2,West,11.5,-,N/A,,Scattered Clouds,270,2013-03-17 22:00:00
5:00 PM,78.8,64.4,61,29.98,6.2,West,9.2,-,N/A,,Scattered Clouds,270,2013-03-17 23:00:00
6:00 PM,75,64,62,29.86,12,West,6.9,,,,Partly Cloudy,260,2013-03-18 00:00:00
6:00 PM,75.2,64.4,69,29.99,6.2,West,6.9,-,N/A,,Scattered Clouds,260,2013-03-18 00:00:00
7:00 PM,73.4,64.4,73,30.01,6.2,WSW,5.8,-,N/A,,Mostly Cloudy,240,2013-03-18 01:00:00
8:00 PM,73.4,64.4,73,30.03,6.2,WSW,3.5,-,N/A,,Mostly Cloudy,240,2013-03-18 02:00:00
9:00 PM,72,64,71,29.88,12,SSW,2.3,,,,Scattered Clouds,200,2013-03-18 03:00:00
9:00 PM,71.6,64.4,78,30.04,6.2,SSW,2.3,-,N/A,,Partly Cloudy,200,2013-03-18 03:00:00
10:00 PM,69.8,64.4,83,30.05,6.2,Calm,Calm,-,N/A,,Partly Cloudy,0,2013-03-18 04:00:00
11:00 PM,69.8,64.4,83,30.06,6.2,Calm,Calm,-,N/A,,Partly Cloudy,0,2013-03-18 05:00:00